Regional Weather Roundup
Issued by NWS

Home | Current Version | Previous Version | Graphics & Text | Print | Product List | Glossary On
Versions: 1 2 3 4 5 6 7 8 9 10 11 12 13 14 15 16 17 18 19 20 21 22 23 24 25 26 27 28 29 30 31 32 33 34 35 36 37 38 39 40 41 42 43 44 45 46 47 48 49 50
000
ASUS43 KLMK 230510
RWRKY
KENTUCKY REGIONAL WEATHER ROUNDUP
NATIONAL WEATHER SERVICE LOUISVILLE KY
100 AM EDT TUE AUG 23 2016

NOTE "FAIR" INDICATES FEW OR NO CLOUDS BELOW 12,000 FEET
WITH NO SIGNIFICANT WEATHER AND/OR OBSTRUCTIONS TO VISIBILITY.

KYZ001>023-026-027-061>063-070>075-230600-
WESTERN AND SOUTH CENTRAL KENTUCKY

CITY           SKY/WX    TMP DP  RH WIND       PRES   REMARKS
PADUCAH        CLEAR     62  59  90 CALM      30.18S
HENDERSON      CLEAR     63  57  82 CALM      30.20S
OWENSBORO      CLEAR     67  64  90 CALM      30.22R
HOPKINSVILLE   NOT AVBL
BOWLING GREEN  CLEAR     65  62  90 CALM      30.22S
GLASGOW        CLEAR     62  62 100 CALM      30.23R
$$

KYZ024-025-028>034-038-045-046-053-230600-
NORTH CENTRAL KENTUCKY

CITY           SKY/WX    TMP DP  RH WIND       PRES   REMARKS
LOUISVILLE/SDF CLEAR     69  61  75 CALM      30.23R
LOUISVILLE/LOU CLEAR     66  59  78 CALM      30.24R
FORT KNOX      CLEAR     61  60  95 CALM      30.22R
$$

KYZ035>037-039>044-047>052-055>060-089>105-230600-
NORTHEAST KENTUCKY

CITY           SKY/WX    TMP DP  RH WIND       PRES   REMARKS
LEXINGTON      CLEAR     64  58  80 CALM      30.25R
COVINGTON      CLEAR     62  58  86 CALM      30.24S
FRANKFORT      CLEAR     62  58  86 CALM      30.24R
$$

KYZ054-064>069-076>088-106>120-230600-
SOUTHEAST KENTUCKY

CITY           SKY/WX    TMP DP  RH WIND       PRES   REMARKS
JACKSON        CLEAR     65  58  78 CALM      30.26S
LONDON         CLEAR     62  58  86 CALM      30.26R
SOMERSET       CLEAR     61  61 100 CALM      30.26R
MIDDLESBORO    PTCLDY    61  60  97 CALM      30.27S
MONTICELLO     CLEAR    N/A N/A N/A CALM      30.26S
$$





USA.gov is the U.S. government's official web portal to all federal, state and local government web resources and services.